Weather History for KAXA - September, 2012

Change the Weather History Date:

Tuesday, September 11, 2012

  Actual Average Record
Temperature  
Mean Temperature 76 °F -  
Max Temperature 93 °F 75 °F 93 °F (2012)
Min Temperature 59 °F 52 °F 44 °F (1997)
Cooling Degree Days 11    
Growing Degree Days 26 (Base 50)    
Moisture  
Dew Point 50 °F    
Average Humidity 45    
Maximum Humidity 77    
Minimum Humidity 21    
Precipitation  
Precipitation 0.00 in - - ()
Sea Level Pressure  
Sea Level Pressure 29.86 in    
Wind  
Wind Speed 18 mph (South)    
Max Wind Speed 29 mph    
Max Gust Speed 40 mph    
Visibility 10 miles    
Events      
Averages and records for this station are not official NWS values.
T = Trace of Precipitation, MM = Missing Value Source: NWS Daily Summary

Daily Weather History Graph

Daily Weather History Graph

Search for Another Location

Airport or City:

Trip Planner

Search our weather history database for the weather conditions in past years. The results will help you decide how hot, cold, wet, or windy it might be!

Date:

Astronomy

Sep. 11, 2012 Rise Set
Actual Time 6:52 AM CDT 7:33 PM CDT
Civil Twilight 6:24 AM CDT 8:01 PM CDT
Nautical Twilight 5:50 AM CDT 8:35 PM CDT
Astronomical Twilight 5:14 AM CDT 9:10 PM CDT
Moon 2:05 AM CDT (9/11) 4:49 PM CDT (9/11)
Length of Visible Light 13h 37m
Length of Day
12h 40m
Waning Crescent, 21% of the Moon is Illuminated
Sep 11
Waning Crescent
Sep 15
New
Sep 22
First Quarter
Sep 29
Full
Oct 8
Last Quarter

Hourly Weather History & Observations

Time (CDT) Temp. Dew Point Humidity Pressure Visibility Wind Dir Wind Speed Gust Speed Precip Events Conditions
12:15 AM 66.2 °F 51.8 °F 60% 29.90 in 10.0 mi South 13.8 mph 21.9 mph N/A   Clear
12:35 AM 66.2 °F 51.8 °F 60% 29.89 in 10.0 mi South 18.4 mph - N/A   Clear
12:55 AM 66.2 °F 51.8 °F 60% 29.89 in 10.0 mi South 18.4 mph 26.5 mph N/A   Clear
1:15 AM 64.4 °F 51.8 °F 64% 29.89 in 10.0 mi South 17.3 mph 24.2 mph N/A   Clear
1:35 AM 64.4 °F 51.8 °F 64% 29.89 in 10.0 mi South 16.1 mph 23.0 mph N/A   Clear
1:55 AM 64.4 °F 51.8 °F 64% 29.88 in 10.0 mi South 17.3 mph - N/A   Clear
2:15 AM 64.4 °F 51.8 °F 64% 29.88 in 10.0 mi South 18.4 mph - N/A   Clear
2:35 AM 64.4 °F 51.8 °F 64% 29.88 in 10.0 mi South 17.3 mph 24.2 mph N/A   Clear
2:55 AM 62.6 °F 51.8 °F 68% 29.87 in 10.0 mi South 17.3 mph - N/A   Clear
3:15 AM 62.6 °F 51.8 °F 68% 29.87 in 10.0 mi South 16.1 mph 23.0 mph N/A   Clear
3:35 AM 62.6 °F 51.8 °F 68% 29.87 in 10.0 mi South 16.1 mph - N/A   Clear
3:55 AM 62.6 °F 51.8 °F 68% 29.87 in 10.0 mi South 17.3 mph - N/A   Clear
4:15 AM 62.6 °F 51.8 °F 68% 29.87 in 10.0 mi South 16.1 mph - N/A   Clear
4:35 AM 60.8 °F 51.8 °F 72% 29.88 in 10.0 mi South 16.1 mph - N/A   Clear
4:55 AM 60.8 °F 51.8 °F 72% 29.88 in 10.0 mi South 15.0 mph - N/A   Clear
5:15 AM 60.8 °F 51.8 °F 72% 29.88 in 10.0 mi South 15.0 mph 21.9 mph N/A   Clear
5:35 AM 60.8 °F 51.8 °F 72% 29.88 in 10.0 mi South 13.8 mph - N/A   Clear
5:55 AM 59.0 °F 51.8 °F 77% 29.89 in - South 13.8 mph - N/A   Clear
6:15 AM 59.0 °F 51.8 °F 77% 29.89 in 10.0 mi South 13.8 mph - N/A   Clear
6:35 AM 59.0 °F 51.8 °F 77% 29.88 in 10.0 mi South 15.0 mph 21.9 mph N/A   Clear
6:55 AM 59.0 °F 51.8 °F 77% 29.89 in 10.0 mi South 16.1 mph - N/A   Clear
7:15 AM 59.0 °F 51.8 °F 77% 29.89 in 10.0 mi South 15.0 mph - N/A   Clear
7:35 AM 60.8 °F 51.8 °F 72% 29.89 in 10.0 mi South 16.1 mph - N/A   Clear
7:55 AM 60.8 °F 51.8 °F 72% 29.88 in 10.0 mi South 17.3 mph 23.0 mph N/A   Clear
8:15 AM 62.6 °F 51.8 °F 68% 29.89 in 10.0 mi South 16.1 mph 24.2 mph N/A   Clear
8:35 AM 64.4 °F 51.8 °F 64% 29.88 in 10.0 mi South 20.7 mph 27.6 mph N/A   Clear
8:55 AM 68.0 °F 51.8 °F 56% 29.87 in 10.0 mi South 24.2 mph 29.9 mph N/A   Clear
9:15 AM 69.8 °F 51.8 °F 53% 29.87 in 10.0 mi SSW 19.6 mph - N/A   Clear
9:35 AM 71.6 °F 51.8 °F 50% 29.88 in 10.0 mi SSW 19.6 mph 29.9 mph N/A   Clear
9:55 AM 75.2 °F 50.0 °F 41% 29.88 in 10.0 mi SSW 21.9 mph 31.1 mph N/A   Clear
10:15 AM 77.0 °F 50.0 °F 39% 29.88 in 10.0 mi SSW 23.0 mph 29.9 mph N/A   Clear
10:35 AM 80.6 °F 50.0 °F 34% 29.88 in 10.0 mi SSW 19.6 mph 29.9 mph N/A   Clear
10:55 AM 82.4 °F 48.2 °F 30% 29.88 in 10.0 mi SSW 23.0 mph 32.2 mph N/A   Clear
11:15 AM 84.2 °F 48.2 °F 29% 29.88 in 10.0 mi SSW 18.4 mph 35.7 mph N/A   Clear
11:35 AM 84.2 °F 48.2 °F 29% 29.87 in 10.0 mi SSW 26.5 mph 36.8 mph N/A   Clear
11:55 AM 86.0 °F 48.2 °F 27% 29.86 in 10.0 mi SSW 27.6 mph 34.5 mph N/A   Clear
12:15 PM 86.0 °F 48.2 °F 27% 29.86 in 10.0 mi South 27.6 mph 35.7 mph N/A   Clear
12:35 PM 87.8 °F 48.2 °F 25% 29.86 in 10.0 mi SSW 23.0 mph 34.5 mph N/A   Clear
12:55 PM 89.6 °F 48.2 °F 24% 29.85 in 10.0 mi SSW 25.3 mph 32.2 mph N/A   Clear
1:15 PM 89.6 °F 48.2 °F 24% 29.85 in 10.0 mi South 20.7 mph 35.7 mph N/A   Clear
1:35 PM 89.6 °F 46.4 °F 22% 29.84 in 10.0 mi South 28.8 mph 35.7 mph N/A   Clear
1:55 PM 91.4 °F 48.2 °F 23% 29.84 in 10.0 mi South 24.2 mph 36.8 mph N/A   Clear
2:15 PM 91.4 °F 48.2 °F 23% 29.83 in 10.0 mi SSW 21.9 mph 33.4 mph N/A   Clear
2:35 PM 91.4 °F 48.2 °F 23% 29.83 in 10.0 mi South 25.3 mph 32.2 mph N/A   Clear
2:55 PM 91.4 °F 46.4 °F 21% 29.83 in 10.0 mi SSW 23.0 mph 38.0 mph N/A   Clear
3:15 PM 91.4 °F 48.2 °F 23% 29.82 in 10.0 mi SSW 24.2 mph 33.4 mph N/A   Clear
3:35 PM 91.4 °F 48.2 °F 23% 29.82 in 10.0 mi SSW 21.9 mph 39.1 mph N/A   Clear
3:55 PM 93.2 °F 48.2 °F 21% 29.82 in 10.0 mi SSW 26.5 mph 35.7 mph N/A   Clear
4:15 PM 91.4 °F 48.2 °F 23% 29.82 in 10.0 mi South 23.0 mph 36.8 mph N/A   Clear
4:35 PM 91.4 °F 50.0 °F 24% 29.81 in 10.0 mi South 21.9 mph 34.5 mph N/A   Clear
4:55 PM 91.4 °F 48.2 °F 23% 29.81 in 10.0 mi South 27.6 mph 38.0 mph N/A   Clear
5:15 PM 91.4 °F 48.2 °F 23% 29.81 in 10.0 mi South 28.8 mph 36.8 mph N/A   Clear
5:35 PM 89.6 °F 48.2 °F 24% 29.81 in 10.0 mi South 26.5 mph 40.3 mph N/A   Clear
5:55 PM 89.6 °F 48.2 °F 24% 29.82 in 10.0 mi South 24.2 mph 36.8 mph N/A   Clear
6:15 PM 89.6 °F 48.2 °F 24% 29.81 in 10.0 mi South 25.3 mph 34.5 mph N/A   Clear
6:35 PM 87.8 °F 50.0 °F 27% 29.82 in 10.0 mi South 21.9 mph 36.8 mph N/A   Clear
6:55 PM 86.0 °F 48.2 °F 27% 29.83 in 10.0 mi SSW 19.6 mph 31.1 mph N/A   Clear
7:15 PM 84.2 °F 48.2 °F 29% 29.83 in 10.0 mi South 17.3 mph 24.2 mph N/A   Clear
7:35 PM 82.4 °F 48.2 °F 30% 29.83 in 10.0 mi South 17.3 mph - N/A   Clear
7:55 PM 80.6 °F 48.2 °F 32% 29.84 in 10.0 mi South 15.0 mph - N/A   Clear
8:15 PM 80.6 °F 50.0 °F 34% 29.84 in 10.0 mi South 13.8 mph - N/A   Clear
8:35 PM 78.8 °F 50.0 °F 36% 29.85 in 10.0 mi South 16.1 mph - N/A   Clear
8:55 PM 78.8 °F 50.0 °F 36% 29.86 in 10.0 mi South 13.8 mph 20.7 mph N/A   Clear
9:15 PM 77.0 °F 50.0 °F 39% 29.87 in 10.0 mi South 12.7 mph 19.6 mph N/A   Clear
9:35 PM 77.0 °F 50.0 °F 39% 29.87 in 10.0 mi South 13.8 mph - N/A   Clear
9:55 PM 77.0 °F 51.8 °F 41% 29.88 in 10.0 mi South 12.7 mph - N/A   Clear
10:15 PM 77.0 °F 50.0 °F 39% 29.89 in 10.0 mi South 13.8 mph - N/A   Clear
10:35 PM 75.2 °F 50.0 °F 41% 29.89 in 10.0 mi South 12.7 mph 19.6 mph N/A   Clear
10:55 PM 75.2 °F 50.0 °F 41% 29.90 in 10.0 mi South 12.7 mph - N/A   Clear
11:35 PM 73.4 °F 50.0 °F 44% 29.90 in 10.0 mi South 11.5 mph 19.6 mph N/A   Clear
11:55 PM 73.4 °F 51.8 °F 47% 29.90 in 10.0 mi South 15.0 mph - N/A   Clear